Vorticity
15 15 15 14 14 14 14 13 13 13 13 13 14 14 14 14 14 13 13 12 12 11 11 10 10 10 10 10 10 9 9 9 9 9 9 10 10 11 12 12 12 12 12 12 12 13 13 14 15 16 16 15 16 15 14 14 14 13 12 11 10 9 8 8 10 11 13 16 17
16 16 16 15 15 15 14 14 13 13 13 14 14 14 15 15 15 14 14 13 13 12 12 11 11 10 10 10 10 10 10 10 10 9 10 10 10 11 12 12 12 12 12 12 12 13 13 14 15 15 15 15 15 15 15 14 14 14 14 13 12 11 10 8 8 8 10 12 14
17 17 16 16 16 15 15 15 14 14 14 14 14 14 15 16 16 16 15 15 14 13 13 13 12 11 11 10 10 10 10 10 10 10 10 10 10 11 12 12 12 12 12 12 13 13 14 14 14 14 14 15 15 15 15 15 15 16 16 15 15 14 13 12 10 9 8 9 11
18 18 17 17 17 16 16 15 15 14 14 14 14 14 15 15 16 16 16 16 16 16 15 14 13 13 12 11 10 10 10 10 10 10 10 10 11 11 12 12 13 13 12 12 13 13 13 14 13 13 14 14 14 14 15 16 17 16 16 17 18 18 18 17 15 12 10 8 9
18 18 18 17 17 16 16 15 15 14 14 14 14 14 14 15 16 16 17 18 18 18 17 16 16 15 14 13 12 11 10 10 10 10 10 11 11 12 12 12 13 13 13 13 13 13 13 13 13 13 13 13 13 14 15 17 17 17 18 18 19 20 21 22 20 18 14 10 9
17 17 17 17 16 16 15 15 14 14 13 13 13 13 13 14 14 15 17 18 19 19 19 18 18 17 16 15 14 13 12 11 10 11 11 12 12 13 13 13 13 13 13 14 14 14 14 13 13 12 12 13 13 14 15 17 17 18 19 19 20 22 23 25 24 22 18 14 11
16 16 16 16 16 16 15 15 14 14 13 13 13 13 12 12 13 14 15 16 17 19 19 19 18 18 18 17 16 15 14 13 12 12 13 13 14 14 14 13 13 14 15 16 16 16 15 14 13 13 12 12 13 14 15 16 17 18 18 19 20 22 24 26 26 24 22 18 14
15 15 16 16 16 16 16 15 15 14 13 13 12 12 12 11 12 12 13 14 15 16 17 18 18 18 18 18 17 17 16 15 14 13 13 13 14 14 14 14 14 14 15 16 17 17 16 15 14 13 13 12 13 14 15 16 17 17 18 19 21 23 24 26 26 25 23 19 16
13 14 15 15 16 16 16 16 15 15 14 13 12 12 11 11 11 11 12 12 13 13 14 16 17 18 18 19 19 18 17 16 15 14 13 13 14 14 14 15 14 15 15 16 17 17 16 16 15 14 13 12 13 13 15 16 16 17 18 18 21 22 24 25 25 24 22 20 17
12 12 13 14 15 15 16 16 16 16 15 14 13 12 11 11 11 11 11 11 11 12 12 14 15 17 19 20 20 19 18 17 16 14 13 13 13 14 14 15 15 15 16 16 17 17 17 16 15 14 13 12 12 12 14 15 16 17 17 18 20 21 22 22 22 21 20 19 17
10 11 11 12 13 13 14 15 16 16 16 16 15 14 13 12 11 10 10 10 11 10 10 10 13 15 18 21 22 21 19 17 16 14 13 12 12 12 13 14 14 15 16 16 17 18 18 18 16 15 13 11 10 10 12 14 15 16 17 18 19 20 20 19 18 17 17 16 16
9 9 9 10 10 11 12 13 14 15 16 16 16 15 14 13 12 11 10 10 10 9 9 8 10 12 15 19 22 22 21 18 16 15 13 12 11 11 11 12 13 14 14 15 17 19 20 20 19 16 14 11 9 9 10 12 14 16 17 18 20 20 20 19 17 15 14 14 14
8 8 8 8 8 9 10 11 12 13 14 15 15 15 15 15 13 12 11 10 10 9 9 8 8 9 12 16 20 22 22 19 17 15 14 12 11 10 9 9 10 12 13 12 14 18 21 22 21 18 15 12 9 8 8 10 11 14 16 18 20 21 21 20 18 16 14 13 13
8 7 7 7 7 8 8 9 10 10 11 13 13 14 15 15 15 14 13 12 10 10 9 8 7 7 9 13 18 21 22 19 17 15 15 14 11 9 7 7 9 10 12 10 11 15 19 23 23 21 18 14 11 10 9 9 9 11 14 17 20 22 22 22 20 18 16 14 13
9 8 8 7 7 8 8 8 8 9 10 11 12 13 13 14 15 15 14 13 12 10 10 9 8 7 7 10 15 19 21 20 17 15 15 15 13 10 7 5 7 10 11 10 9 10 15 20 23 23 22 18 15 13 11 11 10 10 12 15 19 22 23 24 22 20 18 16 16
9 9 8 9 8 8 8 8 8 8 9 10 10 12 13 14 14 15 16 15 13 12 11 10 8 7 6 7 12 17 20 20 17 16 16 17 16 13 8 5 6 8 11 11 9 8 10 15 20 22 23 21 18 16 14 14 13 12 11 13 16 19 21 23 23 22 20 19 19
10 10 10 10 10 10 9 9 9 9 9 9 10 11 12 13 14 15 16 16 14 13 12 10 10 8 7 6 9 13 17 19 17 16 16 19 19 16 12 7 6 8 10 13 11 9 8 10 14 18 21 22 20 19 17 17 16 14 12 10 12 14 17 18 20 20 20 20 22
10 10 10 11 11 10 10 10 10 10 10 10 10 11 12 12 13 14 15 16 16 14 13 11 11 10 8 7 8 10 14 18 18 16 16 19 21 19 15 9 8 10 13 16 14 11 8 8 10 13 16 19 20 20 20 19 18 15 12 9 9 10 12 14 15 16 18 20 22
11 11 11 11 11 11 11 11 10 10 10 10 10 11 12 13 14 14 15 16 16 15 14 12 12 11 10 8 7 9 12 16 17 16 15 17 20 20 18 13 13 14 16 18 15 12 8 6 7 9 12 15 17 20 21 21 20 17 13 9 8 9 10 11 13 14 16 18 20
11 11 11 12 12 12 12 12 11 11 10 11 12 13 14 15 16 16 16 16 16 16 15 14 13 12 11 9 8 8 10 14 16 16 14 14 18 20 20 17 16 16 15 15 14 12 8 4 4 5 7 11 14 17 19 22 22 20 16 10 8 7 8 10 11 13 15 18 20
11 11 11 11 12 12 12 12 12 11 11 12 13 14 16 17 18 18 18 17 16 16 16 15 14 13 12 10 9 8 8 11 15 16 14 13 16 20 21 17 14 11 9 10 14 14 11 5 2 2 4 7 10 13 16 20 23 23 20 15 10 7 6 7 8 10 13 16 20
11 11 11 12 12 12 12 12 12 12 12 13 15 16 17 18 20 20 20 19 18 17 17 17 16 14 13 12 10 8 8 9 13 15 15 13 15 18 18 9 6 6 6 4 12 15 15 9 3 0 1 4 6 10 13 16 20 24 24 22 16 11 7 5 5 6 8 12 16
10 11 12 12 12 12 12 12 12 12 13 15 16 17 18 19 20 22 22 22 21 20 19 18 17 16 15 13 11 9 8 8 11 13 15 15 16 17 12 -2 -2 2 6 4 5 10 16 17 7 1 -1 1 4 6 9 13 16 21 25 27 24 20 16 11 7 5 5 6 9
11 11 12 12 13 13 12 12 12 13 15 16 16 16 17 18 20 22 24 25 24 22 21 20 18 17 16 15 13 11 9 8 9 12 15 17 19 16 8 -7 -5 0 6 8 3 6 13 20 13 6 0 -0 2 3 5 8 11 15 20 26 28 28 26 23 18 13 8 6 4
11 11 12 13 13 13 12 12 13 14 15 15 15 15 15 16 19 22 25 27 27 25 24 22 20 19 18 16 14 12 10 8 9 11 14 18 21 18 8 -5 -3 1 7 11 4 7 13 21 17 11 5 2 1 1 1 3 6 10 14 20 25 28 29 29 26 21 15 10 6
11 12 13 13 13 13 13 13 13 13 13 13 13 13 14 15 18 21 25 28 29 29 27 24 22 20 19 18 16 14 12 10 9 10 13 17 23 21 12 -2 0 4 8 11 4 2 8 20 21 17 13 10 5 2 -1 -2 1 4 9 13 18 22 26 28 29 27 23 17 12
12 12 13 13 13 13 13 13 12 12 12 12 12 13 14 15 17 20 25 29 31 32 30 28 25 23 21 20 19 17 14 12 10 10 12 15 23 23 17 3 2 4 9 13 7 5 10 23 26 24 20 18 13 8 3 -2 -2 -0 3 7 11 15 19 22 25 27 27 25 22
12 13 13 13 14 14 13 12 11 10 10 10 11 12 13 13 15 19 23 29 33 34 34 31 27 25 23 22 21 19 16 14 12 10 11 13 20 24 21 9 3 3 6 10 8 4 4 17 26 27 24 22 19 16 11 5 -0 -2 -2 1 6 10 14 17 19 22 25 28 30
13 13 13 13 14 14 13 13 10 8 6 6 7 8 10 11 13 16 20 26 32 36 37 34 30 27 24 23 22 20 18 16 13 12 12 13 19 24 24 14 6 5 7 7 4 -5 -7 9 22 27 26 23 21 19 17 13 7 1 -3 -5 -1 4 10 15 18 20 23 27 30
13 13 13 13 13 14 14 13 9 5 3 2 3 4 6 7 9 12 16 22 30 36 38 36 32 28 25 22 22 21 19 17 15 13 13 14 19 24 24 16 9 9 11 10 5 -8 -14 3 18 25 27 26 25 24 22 20 16 10 3 -4 -4 -2 4 10 16 20 22 23 24
13 13 13 13 14 14 14 13 8 4 1 -1 -1 0 2 3 5 7 10 15 24 31 36 38 35 31 27 24 24 23 22 19 17 15 14 15 19 23 23 15 8 9 13 14 13 -2 -13 2 16 22 24 26 27 28 28 28 25 20 15 8 2 -1 -0 4 10 17 21 20 17
13 13 13 13 14 14 14 13 10 5 1 -2 -3 -3 -2 -1 0 2 4 8 14 22 30 36 37 34 30 28 27 25 24 22 19 17 16 16 19 22 21 13 4 6 11 11 13 0 -9 3 14 18 18 20 22 25 28 30 30 28 25 20 14 7 3 1 4 10 16 19 14
13 13 13 14 13 14 14 14 11 7 3 -1 -2 -4 -4 -4 -3 -2 -1 1 6 13 22 30 34 34 33 31 29 27 25 23 21 20 18 18 19 22 21 12 1 3 10 15 10 3 -2 -1 10 13 13 13 15 17 21 26 30 32 32 29 24 18 12 6 3 4 9 16 15
13 13 13 13 13 13 14 14 13 10 7 4 1 -2 -3 -4 -4 -4 -3 -2 0 6 13 21 28 32 33 32 29 27 25 23 22 21 21 21 21 22 21 13 -2 -2 5 13 7 7 8 3 10 11 10 10 10 11 14 18 23 28 32 34 33 29 24 17 11 6 4 8 13
13 13 13 13 13 13 14 14 14 13 11 9 6 4 1 -2 -3 -3 -3 -3 -2 -0 4 12 20 27 31 32 31 28 26 24 23 22 23 24 23 24 22 16 -3 -9 -7 3 -1 5 10 6 11 13 12 10 9 8 9 10 13 18 23 30 33 34 33 30 25 18 11 5 8
13 13 13 13 13 13 13 14 14 14 14 13 12 10 7 4 2 -0 -1 -2 -2 -2 -1 3 10 18 26 31 31 30 27 25 23 23 24 25 25 26 25 20 0 -13 -14 -2 0 5 8 5 12 16 16 14 12 10 9 8 7 8 12 19 26 32 35 37 38 36 29 16 10
13 12 12 12 12 12 12 13 13 14 14 14 14 14 13 10 8 5 3 2 1 -0 -1 -1 3 9 17 24 28 29 28 26 24 23 23 24 25 26 27 26 7 -10 -20 -16 -4 2 4 1 12 19 22 20 18 15 13 10 8 6 6 9 17 25 32 38 40 43 43 34 23
11 11 10 10 10 10 10 10 11 12 12 13 14 15 15 15 13 10 8 6 5 3 2 0 0 3 8 15 21 25 26 26 25 24 24 24 24 26 28 30 17 -3 -19 -25 -12 -3 1 -1 12 22 27 25 22 18 15 13 12 10 8 8 12 19 27 32 29 30 33 35 31
10 9 9 8 8 8 8 8 8 9 9 10 11 13 14 15 14 13 12 10 9 7 5 3 1 1 3 8 14 19 23 24 24 24 24 24 24 25 27 31 25 9 -10 -24 -20 -14 -7 -0 11 22 29 29 26 21 17 14 13 13 13 13 13 16 21 24 14 8 9 17 25
8 8 7 7 6 6 6 6 7 7 7 8 9 10 11 13 13 13 13 12 11 10 7 5 3 2 2 3 9 14 18 20 21 23 24 25 24 25 27 29 29 19 2 -15 -20 -21 -18 -8 4 14 23 30 29 25 20 15 14 15 17 18 16 16 18 20 13 7 6 13 22
8 7 7 7 7 6 7 7 7 7 7 7 8 8 9 10 11 12 12 13 12 11 10 8 6 4 2 1 5 10 15 18 18 20 21 24 24 24 26 28 30 25 14 -2 -12 -20 -23 -18 -3 4 9 22 28 28 23 18 16 16 18 20 18 17 17 18 18 17 17 18 23
Height
3016 3014 3011 3009 3007 3005 3003 3001 2999 2996 2994 2992 2990 2989 2987 2985 2984 2982 2980 2979 2977 2976 2975 2974 2973 2972 2971 2970 2969 2968 2967 2966 2965 2965 2964 2963 2962 2961 2960 2960 2959 2958 2957 2956 2956 2955 2955 2954 2954 2953 2953 2953 2953 2954 2954 2954 2955 2955 2955 2956 2956 2957 2958 2958 2959 2959 2960 2960 2960
3014 3011 3009 3007 3005 3003 3000 2999 2997 2995 2992 2990 2988 2986 2985 2983 2981 2980 2978 2977 2975 2974 2972 2971 2970 2969 2968 2967 2966 2965 2964 2963 2963 2962 2961 2960 2960 2959 2958 2957 2956 2955 2955 2954 2953 2952 2951 2951 2950 2950 2950 2950 2950 2950 2950 2951 2951 2951 2952 2952 2953 2954 2954 2955 2955 2956 2956 2957 2957
3011 3009 3007 3005 3003 3000 2998 2996 2995 2993 2990 2988 2986 2984 2982 2981 2979 2977 2976 2975 2973 2971 2970 2969 2968 2967 2966 2965 2964 2963 2962 2961 2960 2959 2958 2958 2957 2956 2955 2955 2954 2953 2952 2951 2950 2950 2949 2948 2948 2947 2947 2947 2947 2947 2947 2947 2948 2948 2948 2949 2949 2950 2950 2951 2952 2953 2953 2954 2954
3010 3007 3005 3003 3001 2999 2996 2994 2992 2990 2989 2986 2985 2982 2980 2979 2977 2975 2974 2972 2971 2970 2968 2966 2965 2964 2963 2962 2961 2960 2960 2958 2957 2956 2956 2955 2955 2954 2953 2952 2951 2950 2949 2949 2948 2947 2946 2945 2945 2944 2944 2944 2944 2944 2944 2944 2945 2945 2945 2945 2945 2946 2947 2947 2948 2949 2950 2950 2950
3007 3005 3003 3001 2999 2997 2995 2992 2990 2989 2986 2985 2983 2980 2979 2977 2975 2973 2972 2970 2969 2967 2966 2965 2963 2962 2961 2960 2959 2958 2957 2956 2955 2955 2954 2953 2952 2951 2951 2950 2949 2948 2947 2946 2945 2944 2943 2943 2942 2942 2941 2941 2941 2941 2941 2941 2941 2941 2941 2942 2942 2942 2943 2943 2944 2945 2946 2947 2948
3005 3003 3001 2999 2997 2995 2993 2991 2989 2987 2985 2983 2981 2979 2977 2975 2973 2971 2970 2968 2967 2965 2964 2963 2961 2960 2959 2958 2957 2956 2955 2954 2953 2952 2952 2951 2950 2950 2949 2948 2947 2945 2945 2944 2943 2942 2941 2940 2940 2940 2939 2939 2939 2939 2939 2939 2939 2938 2938 2939 2939 2939 2939 2940 2940 2941 2942 2943 2944
3004 3002 3000 2998 2996 2994 2991 2989 2987 2985 2983 2981 2979 2977 2975 2973 2971 2970 2968 2966 2965 2963 2962 2960 2959 2958 2957 2956 2955 2954 2953 2952 2951 2950 2950 2949 2948 2947 2946 2945 2945 2943 2942 2941 2940 2940 2939 2938 2938 2937 2937 2937 2937 2937 2937 2936 2936 2936 2935 2935 2935 2935 2936 2936 2937 2938 2939 2940 2940
3002 3000 2998 2996 2994 2992 2990 2988 2985 2984 2981 2980 2977 2975 2974 2972 2970 2968 2966 2965 2963 2961 2960 2958 2957 2956 2955 2953 2952 2951 2950 2950 2949 2948 2947 2947 2946 2945 2944 2943 2942 2941 2940 2939 2938 2937 2937 2936 2936 2935 2935 2935 2935 2935 2934 2934 2934 2933 2933 2933 2932 2933 2933 2933 2934 2935 2935 2936 2937
3001 2999 2997 2995 2993 2991 2989 2986 2984 2982 2980 2978 2976 2974 2972 2970 2968 2966 2965 2963 2961 2960 2958 2956 2955 2954 2952 2951 2950 2949 2948 2947 2947 2946 2945 2945 2944 2943 2942 2941 2940 2939 2938 2937 2936 2935 2935 2934 2934 2933 2933 2933 2932 2932 2932 2931 2931 2930 2930 2930 2930 2930 2930 2930 2931 2931 2932 2933 2934
3000 2998 2996 2994 2992 2990 2987 2985 2983 2981 2979 2976 2974 2972 2970 2968 2966 2965 2963 2961 2960 2958 2956 2955 2953 2952 2950 2949 2948 2946 2945 2945 2944 2944 2943 2942 2941 2940 2940 2938 2937 2936 2935 2935 2934 2933 2933 2932 2932 2931 2931 2930 2930 2930 2930 2929 2929 2928 2928 2927 2927 2927 2927 2928 2928 2929 2930 2931 2931
2999 2997 2995 2992 2990 2988 2986 2984 2981 2979 2977 2975 2973 2971 2969 2967 2965 2963 2961 2959 2957 2956 2954 2953 2951 2950 2948 2947 2946 2945 2944 2943 2942 2941 2941 2940 2939 2939 2938 2936 2935 2935 2934 2933 2932 2931 2930 2930 2930 2929 2929 2929 2928 2928 2928 2927 2927 2926 2925 2925 2925 2925 2925 2925 2926 2927 2927 2928 2929
2998 2995 2993 2991 2989 2987 2985 2982 2980 2978 2975 2973 2971 2969 2967 2965 2963 2961 2959 2957 2955 2954 2952 2951 2950 2948 2946 2945 2944 2943 2942 2941 2940 2940 2939 2938 2937 2937 2936 2935 2934 2933 2932 2931 2930 2929 2929 2928 2927 2927 2927 2926 2926 2926 2926 2925 2925 2924 2923 2923 2923 2923 2923 2924 2924 2924 2925 2925 2926
2997 2994 2992 2990 2987 2985 2983 2981 2979 2976 2974 2972 2969 2967 2965 2963 2961 2959 2957 2955 2953 2952 2950 2949 2948 2946 2945 2944 2942 2941 2940 2940 2939 2938 2937 2936 2935 2935 2934 2934 2933 2931 2930 2929 2929 2928 2927 2926 2925 2925 2925 2925 2924 2924 2924 2923 2923 2922 2921 2921 2920 2920 2920 2920 2921 2922 2923 2923 2924
2995 2993 2991 2988 2986 2984 2981 2979 2977 2975 2972 2970 2968 2965 2963 2961 2959 2957 2955 2953 2951 2950 2948 2947 2946 2945 2943 2942 2941 2940 2939 2938 2937 2936 2936 2935 2934 2934 2933 2932 2931 2930 2928 2928 2927 2926 2925 2924 2923 2923 2922 2922 2922 2922 2922 2921 2921 2920 2920 2919 2919 2919 2919 2919 2919 2920 2920 2921 2922
2994 2992 2990 2987 2985 2982 2980 2977 2975 2973 2970 2968 2966 2964 2961 2959 2957 2955 2953 2951 2950 2948 2946 2945 2944 2943 2942 2941 2940 2939 2938 2937 2936 2935 2934 2934 2933 2932 2932 2931 2930 2929 2927 2926 2925 2924 2923 2922 2921 2920 2920 2920 2920 2920 2920 2919 2919 2919 2918 2917 2917 2917 2917 2917 2917 2918 2918 2919 2920
2993 2990 2988 2985 2983 2981 2978 2976 2973 2971 2969 2966 2964 2962 2960 2957 2955 2953 2951 2949 2947 2946 2944 2943 2942 2941 2940 2939 2938 2937 2936 2935 2935 2934 2933 2932 2931 2931 2931 2930 2929 2927 2925 2924 2923 2922 2921 2920 2920 2919 2918 2918 2918 2918 2918 2917 2917 2917 2916 2916 2915 2915 2915 2915 2915 2916 2916 2917 2918
2991 2989 2986 2984 2981 2979 2976 2974 2971 2969 2967 2965 2963 2960 2958 2956 2953 2951 2949 2947 2945 2944 2942 2941 2940 2939 2938 2937 2937 2936 2935 2934 2933 2932 2932 2931 2930 2930 2929 2929 2928 2926 2924 2922 2921 2920 2920 2919 2918 2917 2916 2916 2916 2916 2915 2915 2915 2915 2915 2915 2914 2914 2914 2914 2914 2914 2915 2915 2916
2990 2987 2985 2982 2980 2977 2975 2972 2970 2968 2965 2963 2961 2959 2956 2954 2952 2950 2947 2945 2944 2942 2940 2939 2938 2937 2936 2935 2935 2934 2933 2932 2931 2931 2930 2930 2929 2928 2928 2928 2927 2925 2923 2921 2919 2918 2918 2917 2916 2916 2915 2915 2914 2914 2914 2914 2914 2914 2913 2913 2913 2912 2912 2912 2912 2913 2913 2913 2914
2988 2985 2983 2981 2978 2976 2973 2971 2969 2966 2964 2961 2959 2957 2955 2952 2950 2947 2945 2944 2941 2940 2938 2937 2936 2935 2934 2934 2933 2932 2931 2930 2930 2930 2929 2928 2927 2927 2927 2927 2926 2925 2922 2919 2917 2916 2916 2916 2915 2914 2914 2913 2912 2912 2912 2912 2912 2912 2912 2912 2911 2911 2911 2910 2911 2911 2911 2912 2913
2986 2984 2981 2979 2977 2974 2972 2969 2967 2965 2962 2960 2957 2955 2953 2950 2948 2945 2943 2941 2940 2938 2936 2935 2934 2933 2932 2932 2931 2930 2930 2929 2928 2928 2927 2927 2926 2926 2926 2926 2925 2923 2920 2917 2915 2915 2915 2915 2914 2913 2912 2911 2911 2911 2910 2910 2910 2910 2910 2910 2910 2910 2910 2909 2909 2910 2910 2910 2911
2985 2982 2980 2977 2975 2973 2970 2968 2965 2963 2960 2958 2956 2953 2951 2949 2946 2944 2941 2939 2937 2935 2934 2932 2931 2930 2930 2930 2929 2928 2928 2927 2927 2926 2926 2925 2925 2925 2925 2924 2923 2921 2918 2915 2914 2914 2914 2914 2913 2912 2911 2910 2910 2910 2909 2909 2909 2909 2909 2909 2909 2909 2908 2908 2908 2908 2909 2909 2910
2983 2981 2979 2976 2974 2971 2969 2966 2964 2962 2959 2957 2955 2952 2949 2947 2945 2942 2940 2937 2935 2933 2932 2930 2929 2928 2928 2927 2927 2926 2925 2925 2925 2925 2924 2924 2923 2923 2923 2922 2921 2919 2916 2914 2913 2913 2913 2912 2911 2911 2910 2910 2909 2909 2908 2908 2907 2907 2907 2907 2907 2907 2907 2907 2907 2907 2907 2908 2908
2982 2980 2977 2975 2973 2970 2968 2965 2963 2960 2958 2956 2953 2951 2948 2945 2943 2940 2938 2936 2934 2931 2930 2928 2927 2926 2925 2925 2924 2924 2923 2923 2923 2923 2922 2922 2922 2921 2921 2920 2919 2917 2915 2913 2911 2912 2912 2910 2910 2910 2909 2909 2908 2908 2907 2907 2906 2906 2905 2905 2905 2905 2906 2906 2906 2906 2906 2907 2907
2981 2979 2976 2974 2971 2969 2967 2964 2962 2960 2957 2955 2952 2949 2947 2944 2941 2939 2936 2934 2932 2930 2928 2926 2925 2924 2923 2923 2922 2922 2921 2921 2921 2921 2921 2920 2920 2920 2919 2918 2917 2915 2913 2912 2910 2911 2912 2909 2908 2908 2908 2908 2907 2907 2906 2906 2905 2905 2905 2904 2904 2904 2904 2904 2905 2905 2905 2905 2906
2980 2977 2975 2973 2970 2968 2966 2963 2961 2959 2956 2954 2951 2948 2945 2943 2940 2937 2935 2932 2930 2928 2926 2924 2923 2922 2921 2920 2920 2920 2919 2919 2919 2919 2919 2918 2918 2917 2917 2916 2915 2914 2913 2912 2910 2911 2911 2908 2906 2906 2906 2906 2906 2906 2905 2905 2904 2904 2904 2903 2903 2903 2903 2903 2903 2903 2904 2904 2905
2979 2976 2974 2972 2970 2967 2965 2962 2960 2958 2955 2952 2950 2947 2945 2942 2939 2936 2933 2931 2928 2926 2924 2922 2921 2920 2919 2918 2918 2918 2917 2917 2917 2917 2917 2916 2916 2915 2915 2915 2914 2913 2912 2911 2910 2910 2910 2907 2905 2905 2904 2904 2905 2905 2904 2904 2904 2903 2903 2903 2902 2902 2902 2902 2902 2902 2902 2903 2903
2977 2975 2973 2971 2969 2966 2964 2961 2959 2957 2954 2951 2949 2946 2944 2941 2938 2935 2932 2930 2927 2925 2922 2920 2919 2918 2917 2916 2916 2915 2915 2915 2915 2915 2915 2914 2914 2914 2913 2913 2913 2912 2911 2910 2909 2909 2909 2906 2904 2903 2903 2903 2903 2903 2903 2903 2902 2902 2902 2902 2902 2901 2901 2901 2901 2901 2902 2902 2902
2976 2974 2972 2970 2968 2965 2963 2961 2958 2956 2953 2951 2948 2945 2943 2940 2937 2935 2932 2929 2926 2923 2921 2919 2917 2916 2915 2914 2914 2914 2913 2913 2913 2913 2913 2913 2912 2912 2911 2911 2911 2911 2910 2910 2909 2908 2908 2906 2903 2901 2901 2901 2901 2901 2901 2901 2901 2901 2901 2901 2901 2901 2901 2901 2901 2901 2901 2901 2901
2975 2973 2971 2969 2966 2964 2962 2960 2957 2955 2952 2950 2947 2945 2942 2940 2937 2934 2931 2928 2925 2922 2920 2918 2916 2914 2913 2912 2912 2912 2911 2911 2911 2911 2911 2911 2910 2910 2910 2910 2910 2910 2909 2908 2907 2907 2907 2905 2902 2900 2900 2900 2900 2900 2900 2899 2899 2899 2900 2900 2900 2900 2900 2900 2900 2900 2901 2901 2900
2974 2971 2970 2967 2965 2963 2961 2959 2956 2954 2951 2949 2947 2945 2942 2940 2937 2934 2931 2928 2925 2922 2919 2917 2915 2913 2912 2911 2910 2910 2910 2910 2910 2910 2910 2909 2909 2909 2909 2909 2909 2909 2908 2907 2906 2907 2906 2904 2900 2899 2899 2898 2898 2898 2898 2898 2898 2898 2898 2899 2899 2899 2900 2900 2900 2900 2900 2900 2900
2972 2970 2968 2966 2964 2962 2960 2957 2955 2953 2950 2949 2946 2944 2942 2939 2936 2933 2930 2928 2925 2922 2919 2917 2915 2913 2911 2910 2909 2909 2909 2908 2908 2908 2908 2908 2907 2907 2907 2908 2908 2907 2906 2905 2905 2906 2906 2902 2899 2898 2897 2897 2897 2897 2896 2896 2896 2896 2896 2897 2897 2898 2898 2899 2899 2899 2899 2899 2899
2971 2969 2967 2965 2963 2961 2959 2956 2954 2952 2950 2948 2945 2944 2941 2939 2936 2934 2931 2928 2925 2922 2920 2917 2915 2912 2910 2909 2908 2908 2907 2907 2906 2906 2906 2906 2906 2906 2906 2906 2907 2906 2905 2905 2904 2905 2905 2901 2898 2896 2896 2896 2896 2896 2895 2895 2895 2895 2895 2895 2896 2896 2897 2897 2897 2897 2897 2898 2898
2970 2968 2966 2964 2961 2960 2957 2955 2953 2951 2949 2947 2945 2943 2940 2938 2936 2934 2931 2929 2926 2923 2920 2917 2914 2912 2910 2908 2907 2907 2906 2905 2905 2905 2905 2905 2905 2904 2905 2905 2905 2905 2904 2904 2903 2904 2903 2900 2896 2895 2896 2895 2895 2895 2895 2894 2894 2894 2894 2894 2894 2894 2895 2895 2896 2896 2896 2896 2896
2969 2967 2965 2962 2960 2958 2956 2954 2952 2950 2948 2946 2944 2942 2940 2938 2935 2933 2931 2929 2926 2923 2920 2917 2915 2912 2910 2908 2907 2906 2905 2904 2904 2904 2904 2904 2903 2903 2903 2904 2904 2904 2904 2903 2902 2902 2901 2899 2896 2895 2895 2895 2894 2894 2894 2894 2893 2893 2893 2892 2893 2893 2893 2894 2894 2894 2895 2895 2895
2967 2965 2963 2961 2959 2957 2955 2953 2951 2949 2947 2945 2943 2941 2939 2937 2935 2933 2930 2928 2926 2924 2921 2918 2916 2913 2911 2909 2907 2905 2904 2903 2903 2902 2902 2902 2902 2902 2902 2903 2903 2903 2903 2902 2901 2900 2900 2899 2895 2894 2894 2894 2894 2894 2893 2893 2893 2893 2892 2892 2892 2892 2892 2892 2892 2892 2892 2893 2893
2966 2964 2962 2960 2958 2955 2954 2951 2950 2948 2945 2944 2942 2940 2938 2936 2934 2932 2930 2928 2926 2924 2921 2919 2916 2914 2911 2909 2907 2905 2903 2902 2901 2901 2900 2901 2901 2901 2901 2901 2902 2902 2902 2902 2900 2899 2900 2900 2895 2893 2894 2893 2893 2893 2893 2892 2892 2892 2892 2892 2891 2891 2891 2891 2891 2890 2890 2890 2891
2965 2963 2960 2958 2956 2954 2952 2950 2948 2946 2944 2942 2940 2938 2936 2935 2933 2931 2929 2927 2925 2923 2921 2919 2916 2914 2911 2909 2907 2905 2903 2902 2900 2900 2899 2899 2899 2900 2900 2900 2901 2901 2901 2901 2900 2899 2900 2901 2895 2892 2893 2893 2892 2892 2892 2892 2892 2892 2892 2891 2891 2891 2891 2891 2890 2890 2888 2888 2888
2964 2961 2959 2957 2955 2953 2951 2949 2947 2945 2943 2941 2939 2937 2935 2933 2931 2930 2928 2925 2924 2922 2920 2918 2915 2913 2911 2909 2907 2905 2903 2901 2900 2899 2898 2898 2898 2898 2899 2899 2900 2900 2900 2900 2900 2898 2900 2902 2895 2892 2892 2892 2892 2891 2891 2891 2891 2891 2891 2891 2891 2891 2891 2891 2890 2889 2887 2886 2886
2963 2960 2958 2956 2954 2952 2950 2948 2946 2944 2942 2940 2938 2936 2934 2932 2930 2928 2926 2924 2922 2920 2919 2917 2915 2913 2911 2909 2907 2905 2903 2901 2900 2898 2897 2897 2897 2897 2897 2898 2898 2899 2899 2899 2899 2898 2899 2902 2896 2893 2891 2891 2891 2890 2890 2890 2890 2890 2890 2890 2891 2891 2891 2891 2890 2888 2886 2885 2885
2961 2960 2957 2955 2953 2951 2949 2947 2945 2943 2940 2939 2937 2935 2933 2931 2929 2927 2925 2923 2921 2920 2918 2916 2914 2912 2910 2908 2906 2904 2902 2901 2899 2898 2896 2896 2896 2896 2896 2896 2897 2897 2898 2898 2898 2897 2898 2901 2897 2894 2892 2890 2890 2890 2890 2890 2889 2890 2890 2890 2890 2890 2890 2890 2889 2888 2886 2885 2885
2960 2958 2956 2954 2952 2950 2948 2946 2944 2942 2940 2937 2935 2934 2932 2930 2928 2926 2924 2922 2920 2919 2917 2915 2914 2912 2910 2908 2906 2904 2902 2900 2899 2897 2896 2895 2895 2895 2895 2895 2895 2895 2896 2896 2896 2896 2897 2899 2898 2895 2893 2891 2890 2889 2889 2889 2889 2889 2889 2889 2890 2889 2889 2889 2888 2888 2887 2886 2886